Retour au catalogue

STARLINK-5135

ActifCommunicationsVLEO
NORAD 54005·PAYLOAD·🇺🇸 United States

Lancé Oct 5, 2022 depuis Vandenberg Space Force Base

Loading…

Prochains Passages (prochaines 24 heures)

TLE

FraisSource: CelesTrak SupGP

Époque: Sep 15, 2026, 02:43 UTC

1 54005C 22125AT  26258.11368056 -.00028714  00000+0 -18008-2 0  2589
2 54005  53.1580  82.8547 0001327  85.5143 253.5367 15.08847024    12

Suivez STARLINK-5135 en temps réel avec AllMySat

Download on the App Store